Regional Weather Roundup
Issued by NWS

Home | Current Version | Previous Version | Graphics & Text | Print | Product List | Glossary On
Versions: 1 2 3 4 5 6 7 8 9 10 11 12 13 14 15 16 17 18 19 20 21 22 23 24 25 26 27 28 29 30 31 32 33 34 35 36 37 38 39 40 41 42 43 44 45 46 47 48 49 50
000
ASUS43 KLMK 232302
RWRKY
KENTUCKY REGIONAL WEATHER ROUNDUP
NATIONAL WEATHER SERVICE LOUISVILLE KY
700 PM EDT WED AUG 23 2017

NOTE "FAIR" INDICATES FEW OR NO CLOUDS BELOW 12,000 FEET
WITH NO SIGNIFICANT WEATHER AND/OR OBSTRUCTIONS TO VISIBILITY.

KYZ001>023-026-027-061>063-070>075-240000-
WESTERN AND SOUTH CENTRAL KENTUCKY

CITY           SKY/WX    TMP DP  RH WIND       PRES   REMARKS
PADUCAH        SUNNY     81  53  37 N10       29.99S
HENDERSON      NOT AVBL
OWENSBORO      MOSUNNY   80  57  45 NW7       29.99F
HOPKINSVILLE   PTSUNNY   77  57  49 NE9       29.98S
BOWLING GREEN  SUNNY     80  58  46 N6        29.97F
GLASGOW        PTSUNNY   78  57  47 N8        29.98R
$$

KYZ024-025-028>034-038-045-046-053-240000-
NORTH CENTRAL KENTUCKY

CITY           SKY/WX    TMP DP  RH WIND       PRES   REMARKS
LOUISVILLE/SDF PTSUNNY   81  53  37 N9        29.97S
LOUISVILLE/LOU SUNNY     77  55  46 NW3       29.98S
FORT KNOX      CLOUDY    77  54  44 NW5       29.97F
$$

KYZ035>037-039>044-047>052-055>060-089>105-240000-
NORTHEAST KENTUCKY

CITY           SKY/WX    TMP DP  RH WIND       PRES   REMARKS
LEXINGTON      SUNNY     77  51  40 N7        29.99F
COVINGTON      MOSUNNY   77  54  44 N9        29.99S
FRANKFORT      SUNNY     79  50  36 NW8       29.98S
$$

KYZ054-064>069-076>088-106>120-240000-
SOUTHEAST KENTUCKY

CITY           SKY/WX    TMP DP  RH WIND       PRES   REMARKS
JACKSON        MOSUNNY   74  56  53 N5        29.99S
LONDON         MOSUNNY   76  56  49 N10       29.98S
SOMERSET       NOT AVBL
MIDDLESBORO    CLOUDY    78  63  60 N6        29.96S
MONTICELLO     PTCLDY    75  64  68 N13       29.99S
$$




USA.gov is the U.S. government's official web portal to all federal, state and local government web resources and services.